EW5676 Weather Reports


Display with metric or nautical units.
time (UTC)temp
F
wind
direction
speed
MPH
gust
MPH
rain 1hr
in
rain 24hr
in
rain mn
in
humidity
%
barometer
mb
20260831144544 73 58 5.0 9.0 0.00 0.00 0.00 72 1026.8
20260831143645 73 75 4.0 8.0 0.00 0.00 0.00 75 1026.7
20260831142744 72 75 5.0 11.0 0.00 0.00 0.00 77 1026.5
20260831140944 72 57 5.0 8.0 0.00 0.00 0.00 80 1026.6
20260831135144 71 52 4.0 8.0 0.00 0.00 0.00 81 1026.5
20260831134244 71 59 3.0 6.0 0.00 0.00 0.00 82 1026.5
20260831133344 71 53 3.0 8.0 0.00 0.00 0.00 82 1026.4
20260831132445 71 9 3.0 8.0 0.00 0.00 0.00 84 1026.2
20260831125744 70 7 5.0 9.0 0.00 0.00 0.00 84 1026.2
20260831124844 70 31 3.0 7.0 0.00 0.00 0.00 84 1026.3
20260831123944 70 25 4.0 9.0 0.00 0.00 0.00 84 1026.1
20260831123045 70 28 4.0 8.0 0.00 0.00 0.00 85 1026.2
20260831122144 70 16 3.0 8.0 0.00 0.00 0.00 85 1026.2
20260831121244 69 8 3.0 6.0 0.00 0.00 0.00 86 1026.2
20260831120344 69 13 3.0 7.0 0.00 0.00 0.00 87 1026.1
20260831115445 69 353 2.0 6.0 0.00 0.00 0.00 87 1026.0
20260831114544 68 353 2.0 5.0 0.00 0.00 0.00 87 1026.2
20260831113646 68 13 0.0 5.0 0.00 0.00 0.00 87 1026.1
20260831112744 68 2 1.0 4.0 0.00 0.00 0.00 87 1025.9
20260831111844 68 6 3.0 7.0 0.00 0.00 0.00 87 1025.8
20260831110945 68 2 3.0 6.0 0.00 0.00 0.00 87 1025.6
20260831110044 68 349 3.0 5.0 0.00 0.00 0.00 87 1025.6
20260831105144 68 359 3.0 7.0 0.00 0.00 0.00 86 1025.5
20260831103345 68 10 3.0 8.0 0.00 0.00 0.00 86 1025.4
20260831102445 68 5 4.0 7.0 0.00 0.00 0.00 85 1025.2
20260831101544 68 11 5.0 9.0 0.00 0.00 0.00 85 1025.2
20260831100644 68 22 4.0 9.0 0.00 0.00 0.00 86 1025.2
20260831095744 68 23 4.0 7.0 0.00 0.00 0.00 86 1025.1
20260831094844 68 17 4.0 8.0 0.00 0.00 0.00 86 1025.1
20260831093945 68 12 4.0 9.0 0.00 0.00 0.00 87 1025.1
20260831092144 68 4 3.0 7.0 0.00 0.00 0.00 87 1025.0
20260831091245 68 6 2.0 6.0 0.00 0.00 0.00 87 1025.0
20260831090345 69 8 2.0 4.0 0.00 0.00 0.00 87 1024.9
20260831085444 69 29 2.0 5.0 0.00 0.00 0.00 87 1024.8
20260831084545 69 12 1.0 3.0 0.00 0.00 0.00 87 1024.9
20260831082745 69 346 1.0 4.0 0.00 0.00 0.00 87 1025.0
20260831081844 69 346 2.0 5.0 0.00 0.00 0.00 87 1024.9
20260831080944 69 1 3.0 5.0 0.00 0.00 0.00 88 1024.9
20260831075145 69 19 3.0 6.0 0.00 0.00 0.00 91 1024.8
20260831074245 69 12 3.0 7.0 0.00 0.00 0.00 92 1024.8
20260831073344 69 356 3.0 7.0 0.00 0.00 0.00 92 1024.9
20260831072444 70 345 1.0 4.0 0.00 0.00 0.00 92 1024.9
20260831070644 70 350 4.0 6.0 0.00 0.00 0.00 91 1024.7
20260831065744 71 350 3.0 5.0 0.00 0.00 0.00 91 1024.7
20260831064845 71 345 1.0 3.0 0.00 0.00 0.00 91 1024.7
20260831063945 71 320 3.0 5.0 0.00 0.00 0.00 91 1024.8
20260831062144 71 315 2.0 5.0 0.00 0.00 0.00 91 1024.8
20260831061245 71 301 1.0 3.0 0.00 0.00 0.00 91 1024.7
20260831060344 71 291 1.0 3.0 0.00 0.00 0.00 91 1024.7
20260831054545 71 308 0.0 2.0 0.00 0.00 0.00 92 1024.5
20260831053644 71 307 0.0 2.0 0.00 0.00 0.00 91 1024.6
20260831052744 71 314 1.0 4.0 0.00 0.00 0.00 91 1024.6
20260831050944 71 295 1.0 3.0 0.00 0.00 0.00 92 1024.6
20260831050045 71 308 0.0 3.0 0.00 0.00 0.00 92 1024.6
20260831045145 71 320 2.0 4.0 0.00 0.00 0.00 92 1024.5
20260831044244 71 321 2.0 5.0 0.00 0.00 0.00 92 1024.4
20260831043344 72 304 2.0 5.0 0.00 0.00 0.00 93 1024.5
20260831042444 71 281 2.0 5.0 0.00 0.00 0.00 92 1024.3
20260831041545 72 282 2.0 5.0 0.00 0.00 0.00 92 1024.2
20260831040644 71 287 2.0 5.0 0.00 0.00 0.00 93 1024.3
20260831035744 71 284 1.0 6.0 0.00 0.00 0.00 93 1024.3
20260831034844 71 0 0.0 0.0 0.00 0.00 0.00 93 1024.3
20260831033944 72 0 0.0 0.0 0.00 0.00 0.00 93 1024.4
20260831033044 72 0 0.0 0.0 0.00 0.00 0.00 93 1024.4
20260831032145 72 267 0.0 1.0 0.00 0.00 0.00 93 1024.4
20260831031244 72 275 0.0 3.0 0.00 0.00 0.00 93 1024.7
20260831030345 72 270 1.0 4.0 0.00 0.00 0.00 92 1024.7
20260831025444 72 276 1.0 7.0 0.00 0.00 0.00 92 1024.9
20260831024544 72 274 2.0 6.0 0.00 0.00 0.00 92 1024.9
20260831023645 72 283 2.0 5.0 0.00 0.00 0.00 92 1025.0
20260831022744 73 290 2.0 5.0 0.00 0.00 0.00 93 1024.9
20260831021844 73 285 2.0 5.0 0.00 0.00 0.00 93 1024.9
20260831020945 73 280 0.0 3.0 0.00 0.00 0.00 93 1025.0
20260831020046 73 292 1.0 2.0 0.00 0.00 0.00 93 1025.0
20260831014244 73 232 3.0 5.0 0.00 0.00 0.00 92 1025.0
20260831013344 73 250 1.0 4.0 0.00 0.00 0.00 92 1024.8
20260831012444 73 229 1.0 2.0 0.00 0.00 0.00 92 1024.8
20260831011544 73 230 1.0 4.0 0.00 0.00 0.00 91 1024.8
20260831010644 73 229 2.0 4.0 0.00 0.00 0.00 91 1024.7
20260831005745 74 240 2.0 5.0 0.00 0.00 0.00 90 1024.6
20260831004844 74 219 3.0 9.0 0.00 0.00 0.00 89 1024.5
20260831003944 74 223 3.0 7.0 0.00 0.00 0.00 89 1024.4
20260831002145 74 218 4.0 9.0 0.00 0.00 0.00 89 1024.2
20260831001244 74 218 5.0 12.0 0.00 0.00 0.00 88 1024.1
20260831000344 74 223 3.0 7.0 0.00 0.00 0.00 88 1024.1
20260830235444 74 217 2.0 7.0 0.00 0.00 0.00 88 1024.0
20260830234544 74 223 4.0 10.0 0.00 0.00 0.00 87 1024.0
20260830233645 74 213 5.0 12.0 0.00 0.00 0.00 87 1023.8
20260830231845 74 218 5.0 11.0 0.00 0.00 0.00 87 1023.9
20260830230944 74 214 4.0 12.0 0.00 0.00 0.00 86 1024.0
20260830230045 74 216 3.0 12.0 0.00 0.00 0.00 86 1024.0
20260830225144 74 218 4.0 12.0 0.00 0.00 0.00 85 1023.9
20260830224244 74 211 5.0 11.0 0.00 0.00 0.00 85 1024.0
20260830223344 74 216 3.0 9.0 0.00 0.00 0.00 85 1024.1
20260830221544 75 212 4.0 10.0 0.00 0.00 0.00 84 1024.3
20260830215744 75 199 5.0 13.0 0.00 0.00 0.00 83 1024.4
20260830214845 75 205 5.0 12.0 0.00 0.00 0.00 82 1024.2
20260830213944 75 218 4.0 11.0 0.00 0.00 0.00 81 1024.2
20260830213044 75 192 4.0 10.0 0.00 0.00 0.00 81 1024.1
20260830212144 75 204 5.0 12.0 0.00 0.00 0.00 81 1024.4
20260830211244 75 204 4.0 8.0 0.00 0.00 0.00 81 1024.4
20260830205444 76 207 5.0 10.0 0.00 0.00 0.00 79 1024.5
20260830203645 75 218 6.0 14.0 0.00 0.00 0.00 78 1024.5
20260830202744 76 206 6.0 12.0 0.00 0.00 0.00 79 1024.6
20260830201844 76 218 6.0 15.0 0.00 0.00 0.00 79 1024.7
20260830200944 76 208 5.0 15.0 0.00 0.00 0.00 77 1024.7
20260830200044 77 216 6.0 14.0 0.00 0.00 0.00 74 1024.7
20260830195144 77 211 5.0 12.0 0.00 0.00 0.00 74 1024.8
20260830194244 78 214 4.0 12.0 0.00 0.00 0.00 73 1024.7
20260830193345 78 215 3.0 11.0 0.00 0.00 0.00 74 1025.0
20260830192444 78 223 6.0 14.0 0.00 0.00 0.00 74 1025.1
20260830191544 77 229 7.0 14.0 0.00 0.00 0.00 72 1025.3
20260830190644 77 227 7.0 13.0 0.00 0.00 0.00 72 1025.5
20260830185744 78 229 5.0 13.0 0.00 0.00 0.00 69 1025.4
20260830184844 78 219 6.0 13.0 0.00 0.00 0.00 70 1025.6
20260830183944 77 235 3.0 11.0 0.00 0.00 0.00 70 1025.6
20260830183044 77 200 4.0 10.0 0.00 0.00 0.00 71 1025.7
20260830182144 77 213 5.0 11.0 0.00 0.00 0.00 70 1025.9
20260830181245 77 230 5.0 10.0 0.00 0.00 0.00 68 1026.1
20260830180343 77 240 5.0 11.0 0.00 0.00 0.00 66 1026.2
20260830175445 78 223 7.0 15.0 0.00 0.00 0.00 63 1026.1
20260830173644 78 205 7.0 16.0 0.00 0.00 0.00 61 1026.1
20260830172744 78 197 5.0 12.0 0.00 0.00 0.00 65 1026.2
20260830171844 78 220 6.0 12.0 0.00 0.00 0.00 62 1026.2
20260830165144 78 221 7.0 17.0 0.00 0.00 0.00 61 1026.6
20260830164244 79 221 5.0 14.0 0.00 0.00 0.00 61 1026.7
20260830163344 79 232 5.0 11.0 0.00 0.00 0.00 59 1026.8
20260830162445 79 232 4.0 11.0 0.00 0.00 0.00 58 1026.8
20260830161544 78 253 4.0 11.0 0.00 0.00 0.00 55 1026.8
20260830155744 78 238 5.0 11.0 0.00 0.00 0.00 54 1026.8
20260830154844 78 226 6.0 12.0 0.00 0.00 0.00 52 1027.1
20260830153944 78 245 6.0 13.0 0.00 0.00 0.00 54 1027.3
20260830153044 78 247 5.0 10.0 0.00 0.00 0.00 55 1027.4
20260830151244 77 233 6.0 13.0 0.00 0.00 0.00 57 1027.4
20260830150344 77 217 5.0 13.0 0.00 0.00 0.00 55 1027.5